Flag for Moldova Weather past 2 weeks in Chisinau, Moldova

Now
36 °F

Clear.


Feels Like: 30 °F
Forecast: 36 / 40 °F
Wind: 7 mph from Northwest

Location: Chisinau International Airport

Current Time: Mar 5, 2015 at 6:37:40 AM

Latest Report: Mar 5, 2015 at 6:00 AM


Visibility: 10 mi

Pressure: 30.27 "Hg

Humidity: 75%

Dew point: 28 °F

Location of ChisinauLocation

Historic Weather in Chisinau — Graph

°F

Chisinau temperature yesterday

Maximum temperature yesterday: 50 °F (at 3:00 PM)
Minimum temperature yesterday: 32 °F (at 11:30 PM)
Average temperature yesterday: 41 °F

Past Weeks' High & Low Weather Summary

 TemperatureHumidityPressure
High55 °F (Feb 27, 3:30 PM)93% (Feb 20, 3:30 AM)30.69 "Hg (Feb 20, 3:30 AM)
Low14 °F (Feb 19, 1:30 AM)25% (Feb 18, 4:30 PM)29.77 "Hg (Mar 3, 1:30 AM)
Average40 °F75%30.06 "Hg
* Reported Feb 18 5:00 AM — Mar 5 5:30 AM, Chisinau, Weather by CustomWeather, © 2015

Note: Actual official high and low records may vary slightly from our data, if they occured in-between our weather recording intervals... More about our weather records

Advertising

Chisinau weather history for previous 24 hours

 ConditionsComfort  
Time TempWeatherWind HumidityBarometerVisibility
5:30 AM
Thu, Mar 5
36 °FClear.9 mph75%30.27 "Hg10 mi
5:00 AM36 °FClear.8 mph75%30.27 "Hg10 mi
4:00 AM36 °FPassing clouds.8 mph70%30.24 "HgN/A
3:30 AM32 °FPassing clouds.3 mph75%30.24 "HgN/A
3:00 AM32 °FClear.1 mph75%30.24 "Hg10 mi
2:30 AM30 °FClear.5 mph80%30.24 "Hg6 mi
2:00 AM30 °FClear.2 mph75%30.21 "Hg4 mi
1:30 AM30 °FClear.6 mph75%30.21 "Hg5 mi
1:00 AM36 °FPassing clouds.3 mph60%30.18 "HgN/A
12:30 AM32 °FClear.No wind69%30.18 "Hg3 mi
11:30 PM
Wed, Mar 4
32 °FClear.No wind69%30.18 "Hg3 mi
11:00 PM34 °FClear.5 mph65%30.18 "Hg5 mi
10:30 PM36 °FClear.5 mph60%30.18 "Hg5 mi
10:00 PM37 °FClear.3 mph56%30.18 "Hg6 mi
9:30 PM36 °FClear.No wind60%30.18 "Hg5 mi
9:00 PM36 °FClear.2 mph60%30.18 "Hg10 mi
8:30 PM36 °FClear.2 mph60%30.18 "Hg10 mi
8:00 PM39 °FClear.5 mph48%30.18 "Hg10 mi
7:30 PM39 °FClear.5 mph52%30.18 "Hg3 mi
7:00 PM39 °FClear.6 mph56%30.18 "Hg10 mi
6:30 PM41 °FClear.8 mph45%30.18 "Hg10 mi
6:00 PM43 °FClear.8 mph42%30.18 "Hg10 mi
5:30 PM46 °FSunny.8 mph34%30.15 "Hg10 mi
5:00 PM48 °FSunny.10 mph29%30.15 "Hg10 mi
4:30 PM50 °FSunny.13 mph28%30.15 "Hg10 mi
4:00 PM50 °FSunny.10 mph28%30.15 "Hg10 mi
3:30 PM50 °FPassing clouds.10 mph28%30.15 "HgN/A
3:00 PM50 °FPassing clouds.12 mph28%30.15 "HgN/A
2:30 PM48 °FPartly sunny.12 mph32%30.18 "HgN/A
2:00 PM48 °FScattered clouds.8 mph34%30.18 "HgN/A
1:30 PM48 °FScattered clouds.13 mph34%30.18 "HgN/A
1:00 PM46 °FScattered clouds.15 mph40%30.18 "HgN/A
12:30 PM48 °FScattered clouds.18 mph37%30.18 "HgN/A
12:00 PM46 °FScattered clouds.20 mph37%30.18 "HgN/A
11:30 AM45 °FScattered clouds.15 mph46%30.18 "HgN/A
11:00 AM45 °FScattered clouds.17 mph46%30.18 "HgN/A
10:30 AM43 °FScattered clouds.14 mph53%30.18 "HgN/A
10:00 AM43 °FScattered clouds.13 mph53%30.18 "HgN/A
9:30 AM41 °FScattered clouds.14 mph57%30.18 "HgN/A
9:00 AM39 °FPassing clouds.10 mph61%30.18 "HgN/A
8:30 AM39 °FPassing clouds.9 mph61%30.18 "HgN/A
8:00 AM37 °FSunny.7 mph65%30.18 "Hg10 mi
7:30 AM36 °FPassing clouds.3 mph70%30.18 "HgN/A
7:00 AM34 °FPassing clouds.6 mph70%30.18 "HgN/A
6:30 AM36 °FClear.8 mph70%30.15 "Hg10 mi
6:00 AM36 °FPassing clouds.10 mph70%30.15 "HgN/A
Weather by CustomWeather, © 2015

See weather overviewHow to use our weather pages